星链-30612 (STARLINK-30612 )

导读

STARLINK-30612是美国SpaceX公司星链(Starlink)星座的一员,于2023年10月21日发射入轨,属于星链全球低轨卫星互联网计划的组成部分。这类卫星采用平板设计、氪工质霍尔推进,具备自主避撞能力,旨在为全球偏远地区提供低延迟高速宽带服务,寿命末期会脱轨坠入大气层烧毁,减少空间碎片影响。

基本信息
目录编号:
58106
目录名称:
STARLINK-30612
国际标识:
2023-161K
轨道中心:
EARTH
卫星名称:
星链-30612
卫星全名:
星链-30612 (STARLINK-30612 )
卫星状态:
在轨 (已飞行1056 天)
发射日期:
2023-10-21 UTC
国别 :
美国 (US)
星等 :
--
该卫星已列入 空间交会检测服务 Space Conjunction Data Service (SCDS) ,当前飞行风险评估等级: 无高风险
轨道信息
数据来源 国际轨道数据
星历时间: 2026-09-11T15:17:33+0800
7小时前
查看轨道信息
半长轴: 6840.899km
偏心率: 0.0001417
轨道倾角: 53.162°
近地点辐角 92.039°
升交点赤经 6.631°
平近点角 268.077°
近地点: 461.792km
远地点: 463.732km
周期: 93.849分钟
每日圈数: 15.343803
详细信息
固有亮度:
5
最大亮度:
0.3
卫星平台:
Starlink v2.0 mini
覆盖范围:
全球
运营商:
太空探索技术公司
运营商所在国:
美国
制造商(研发单位):
太空探索技术公司
制造商所在国:
美国
使用方式:
暂无
卫星简介
星链(Starlink)计划是由太空探索技术公司(SpaceX)提出的一个巨型低轨卫星互联网星座项目,计划在2019年至2024年间在太空搭建由约1.2万颗卫星组成的“星链”网络,其中1584颗将部署在地球上空550千米处的近地轨道,并从2020年开始工作。该卫星仍在工作。
2D轨道图
3D轨道图
轨道高度分析图
轨道倾角分析图
轨道综合分析图
查看轨道综合分析图
交会数据列表
事件ID 空间交会对象 最接近时刻(TCA) 交会距离 交会风险概率(CRP) 交会风险指数(CRI) 操作
CDM_260912-191905-810606-946421
2026-09-12T
19:19:36+0000
1.248 km
极远距离
1.084641E-5 中风险 0.56
CDM_260913-131805-810606-946421
2026-09-13T
13:18:12+0000
1.464 km
极远距离
6.298843E-6 低风险 0.51
CDM_260913-114405-810606-946421
2026-09-13T
11:44:24+0000
1.843 km
极远距离
3.110868E-6 低风险 0.45
CDM_260912-174505-810606-946421
2026-09-12T
17:45:48+0000
1.995 km
极远距离
2.522312E-6 低风险 0.43
CDM_260912-133204-941805-810621
2026-09-12T
13:32:07+0000
2.663 km
极远距离
1.200967E-6 低风险 0.37
与全量物体交会距离演化趋势
与全量物体交会风险概率演化趋势